ENVIRONMENTAL PROTECTION DEPARTMENT
HONG KONG SPECIAL ADMINISTRATIVE REGION CHINA

Daily Summary (01 January 2011 - 31 December 2011)
Note:,1. The EPD has been reporting API for individual stations on an hourly basis since 1 July 1999.
,2. Empty cells mean that API data are not available for that period.
,3.The API information is based on raw data taken directly from EPD's Air Quality Monitoring Network.

,Roadside API,,,,,,,,,General API
,Causeway Bay,,,Central,,,Mong Kok,,,Central/Western,,,Eastern,,,Kwai Chung,,,Kwun Tong,,,Sha Tin,,,Sham Shui Po,,,Tai Po,,,Tap Mun,,,Tsuen Wan,,,Tung Chung,,,Yuen Long
Date,Average,Maximum,Minimum,Average,Maximum,Minimum,Average,Maximum,Minimum,Average,Maximum,Minimum,Average,Maximum,Minimum,Average,Maximum,Minimum,Average,Maximum,Minimum,Average,Maximum,Minimum,Average,Maximum,Minimum,Average,Maximum,Minimum,Average,Maximum,Minimum,Average,Maximum,Minimum,Average,Maximum,Minimum,Average,Maximum,Minimum
2011-01-01,116,136,105,121,157,85,86,96,80,62,63,60,58,59,57,59,60,57,59,60,58,58,60,56,58,59,57,56,59,45,59,61,57,57,62,55,57,60,56,63,66,60
2011-01-02,97,104,91,72,81,66,82,86,72,58,60,56,59,60,55,60,62,57,59,60,54,58,60,57,59,61,56,58,60,55,56,60,43,59,62,57,61,66,58,60,62,59
2011-01-03,96,108,89,82,92,74,68,72,59,59,62,57,53,60,38,55,60,46,51,58,40,60,61,57,48,59,37,55,62,39,26,42,13,49,59,38,59,62,51,66,68,63
2011-01-04,109,116,100,85,94,80,54,59,51,49,58,42,44,54,36,44,56,33,44,53,38,43,57,32,43,55,35,44,58,35,29,33,26,43,56,36,47,60,39,48,63,42
2011-01-05,96,104,88,84,96,79,70,91,60,53,60,44,46,52,37,46,56,35,48,52,39,42,52,32,48,55,40,43,53,36,37,46,28,48,57,39,49,60,39,51,62,43
2011-01-06,105,111,92,102,105,97,72,84,50,56,60,47,49,52,42,53,57,44,48,52,40,51,54,43,50,54,40,52,54,44,41,47,33,53,57,41,62,65,54,62,65,54
2011-01-07,89,97,82,92,101,85,50,58,46,49,57,43,45,55,38,47,56,41,43,54,36,48,59,40,46,56,39,50,60,42,48,60,34,47,57,40,54,62,49,56,65,52
2011-01-08,100,104,96,105,118,94,70,92,58,63,65,58,58,60,56,61,67,56,58,60,55,62,64,59,61,62,57,66,69,60,61,63,59,61,67,58,67,70,63,71,76,66
2011-01-09,121,134,103,137,148,121,96,104,83,67,70,65,59,63,57,75,81,65,60,63,58,66,70,62,71,76,63,73,75,70,60,63,58,72,79,66,77,80,71,84,87,77
2011-01-10,109,119,98,123,136,117,77,89,69,69,73,67,65,67,63,67,71,65,65,69,63,68,70,66,67,69,65,69,73,66,65,68,63,66,70,65,73,77,71,74,80,70
2011-01-11,115,127,98,124,131,113,81,89,61,73,78,63,68,72,59,71,76,60,70,73,59,72,77,62,71,75,61,71,75,61,67,70,56,72,76,62,75,79,70,78,82,69
2011-01-12,94,99,85,97,112,81,54,60,50,46,61,39,43,58,37,43,59,34,45,58,40,40,61,29,43,60,35,41,59,28,35,55,27,41,60,31,50,69,39,50,67,39
2011-01-13,92,100,89,76,83,66,60,84,50,40,52,37,37,43,35,40,53,33,39,45,37,36,42,30,43,57,38,45,50,39,37,45,29,39,53,32,46,57,39,53,61,44
2011-01-14,118,162,99,115,148,88,106,140,86,67,84,52,58,86,44,77,109,53,61,97,45,57,78,43,75,99,59,57,72,46,53,60,42,75,104,55,75,92,58,80,101,62
2011-01-15,158,179,105,150,155,129,136,157,80,83,92,66,77,86,60,100,117,63,86,94,60,70,79,61,95,112,62,69,71,64,56,57,54,91,111,62,81,95,65,90,107,68
2011-01-16,85,97,81,107,126,93,60,73,55,58,64,55,55,59,53,57,62,55,59,59,59,57,61,55,57,60,55,57,62,55,57,58,55,57,62,55,60,64,56,62,67,60
2011-01-17,91,95,89,92,103,85,79,87,69,56,59,54,55,58,53,56,59,54,40,45,34,57,59,55,57,60,55,56,59,55,59,62,56,57,60,54,58,65,55,62,68,59
2011-01-18,98,105,93,96,104,88,90,93,86,54,59,50,52,57,46,54,59,46,49,53,45,54,59,50,56,59,51,54,59,47,55,61,50,54,60,47,61,65,57,62,68,56
2011-01-19,106,109,97,104,112,95,95,101,90,54,58,50,51,56,46,54,60,46,54,58,51,55,59,49,60,66,54,53,57,47,56,62,50,58,68,49,71,76,61,63,71,56
2011-01-20,97,113,88,109,124,99,90,99,79,55,63,52,54,61,51,60,65,56,56,63,52,58,64,54,58,63,56,58,65,54,58,62,56,57,62,55,77,83,66,69,74,65
2011-01-21,116,121,109,120,125,115,67,78,55,61,66,52,57,63,45,60,66,48,61,65,54,58,65,44,57,64,45,58,66,45,52,62,37,58,63,46,68,84,54,68,76,55
2011-01-22,100,115,84,119,131,98,65,74,57,54,58,51,46,48,43,50,52,48,50,53,46,49,52,43,49,51,46,50,52,45,46,52,38,46,47,44,54,57,52,57,59,55
2011-01-23,98,125,81,104,123,94,84,99,74,55,60,51,51,57,45,55,65,51,53,60,48,56,62,52,54,61,49,56,60,53,55,57,53,50,59,45,60,63,58,63,68,59
2011-01-24,124,128,115,119,124,111,89,98,82,55,61,51,56,57,55,61,64,60,58,60,57,58,60,55,58,59,58,57,59,56,53,55,52,59,60,58,63,65,62,63,66,61
2011-01-25,99,113,78,103,110,98,85,88,82,62,67,48,60,63,56,66,69,61,62,66,58,60,63,56,65,67,60,60,62,58,58,60,55,64,69,59,63,65,61,67,71,63
2011-01-26,91,101,79,115,122,103,90,92,85,63,66,59,58,62,54,68,69,64,62,65,58,61,62,59,63,66,60,62,63,59,59,60,57,66,68,65,67,71,63,73,74,71
2011-01-27,108,115,57,114,130,107,83,85,81,55,59,52,50,54,44,60,64,56,54,58,51,55,59,50,55,60,53,54,59,50,54,57,50,65,67,58,61,69,57,63,70,58
2011-01-28,106,116,97,110,113,105,78,86,65,48,51,42,42,44,41,53,57,42,47,51,42,43,49,36,49,54,39,44,50,38,42,50,33,51,58,39,55,57,51,54,57,49
2011-01-29,106,113,101,121,123,116,61,64,56,42,43,41,41,44,35,41,42,39,44,46,42,36,44,34,39,42,37,40,43,38,36,44,33,39,42,37,50,52,48,51,52,49
2011-01-30,114,119,108,114,122,108,54,57,53,45,47,43,37,38,35,44,45,42,45,48,42,39,42,37,43,44,41,41,44,39,39,43,36,43,45,41,48,50,44,48,52,45
2011-01-31,111,118,106,113,119,107,64,75,57,52,57,44,45,53,36,50,56,43,51,57,43,48,54,39,50,56,42,50,54,42,49,55,38,50,56,42,52,56,45,52,56,46
2011-02-01,119,156,103,107,122,99,86,102,76,57,60,56,53,56,53,57,61,56,57,60,56,56,60,54,57,60,56,54,57,53,56,59,55,56,58,55,57,61,55,57,60,55
2011-02-02,171,184,154,134,140,124,105,108,96,63,65,61,58,61,56,66,70,62,64,68,60,62,64,60,67,70,62,61,62,58,61,62,59,62,64,59,66,69,61,65,66,61
2011-02-03,123,151,94,97,125,75,91,95,85,53,60,44,50,56,42,56,63,50,55,61,48,54,60,47,56,62,49,53,60,45,53,59,46,55,62,47,59,68,50,58,65,51
2011-02-04,132,176,99,101,126,78,93,106,85,52,68,44,50,57,42,65,81,49,52,56,48,53,60,47,59,72,49,51,62,44,46,52,44,61,70,48,60,69,50,54,59,51
2011-02-05,166,186,124,127,137,106,111,116,107,75,84,57,60,63,52,84,89,70,57,60,53,61,67,53,76,81,68,54,60,51,52,62,47,72,74,69,70,72,65,58,60,55
2011-02-06,108,121,101,86,103,79,101,108,96,50,53,48,48,51,47,58,72,51,52,52,51,50,52,48,58,67,54,53,64,49,54,64,50,59,67,55,54,62,53,52,55,51
2011-02-07,128,135,118,104,108,94,115,119,110,52,54,51,57,60,52,71,81,50,53,53,52,52,56,50,72,73,66,52,60,50,54,63,51,69,75,62,66,75,52,56,58,52
2011-02-08,112,134,101,100,115,93,110,114,107,53,61,52,52,54,51,52,55,50,54,55,53,51,51,50,62,68,59,51,53,50,53,60,51,56,62,52,51,63,45,49,51,48
2011-02-09,123,137,87,115,124,89,101,109,90,62,68,54,54,56,50,56,63,47,54,56,52,48,58,45,57,61,52,49,59,43,55,62,53,56,63,41,52,62,39,49,50,46
2011-02-10,87,111,80,84,239,67,95,139,86,63,70,54,58,62,53,58,65,48,61,66,55,56,62,47,59,65,52,58,62,51,62,66,56,53,63,40,56,62,44,56,64,48
2011-02-11,105,114,82,89,93,82,93,103,75,63,68,58,55,60,50,60,65,54,57,63,53,56,61,50,59,64,53,54,60,50,55,62,47,63,69,53,61,68,53,60,64,54
2011-02-12,82,84,80,77,86,64,63,73,57,53,57,50,40,49,35,46,53,40,46,52,40,41,50,35,45,52,39,43,49,36,41,48,35,45,53,39,45,53,39,50,161,41
2011-02-13,93,109,83,66,74,62,78,83,67,54,58,47,48,52,39,51,54,43,52,55,45,49,54,40,50,54,42,49,53,40,51,56,40,49,53,40,49,53,42,50,54,43
2011-02-14,106,111,100,81,88,76,54,65,48,35,44,31,35,37,33,34,40,32,35,42,33,26,38,22,33,39,31,27,38,20,27,34,21,31,38,29,30,41,27,29,41,24
2011-02-15,107,115,94,73,85,60,60,70,53,40,43,35,35,36,34,38,41,34,39,42,35,36,40,27,40,43,36,38,40,32,36,40,28,37,40,32,39,43,31,46,50,36
2011-02-16,85,92,78,66,78,59,71,74,70,41,42,39,37,40,36,39,45,36,41,42,40,36,38,34,42,44,41,36,37,35,41,47,39,40,58,34,44,62,36,47,57,41
2011-02-17,101,139,78,88,94,79,82,93,75,46,54,40,46,53,40,58,68,45,42,56,36,42,52,36,51,58,45,42,55,35,40,47,31,67,74,59,69,74,61,64,70,58
2011-02-18,121,144,75,84,94,69,81,92,59,49,55,35,49,56,35,52,68,33,51,58,33,43,52,26,53,59,37,45,55,26,,,,51,66,34,54,60,49,55,66,40
2011-02-19,67,76,60,65,74,60,53,57,48,32,34,31,30,34,29,30,33,28,28,32,27,24,26,23,32,36,29,25,27,22,23,31,14,30,33,27,38,48,30,37,44,23
2011-02-20,76,78,72,81,86,76,53,64,46,36,40,33,35,38,32,34,39,31,32,35,30,25,29,24,30,36,28,25,31,23,20,34,13,29,34,28,33,41,30,27,40,23
2011-02-21,74,76,71,74,78,70,72,76,65,41,46,38,39,43,37,41,43,39,39,48,33,36,40,30,43,48,37,39,43,31,39,46,29,37,40,34,45,47,42,47,50,41
2011-02-22,73,82,69,80,90,75,85,97,77,50,51,47,47,48,44,46,47,44,50,51,48,43,47,41,51,58,49,43,46,40,49,53,47,42,44,39,46,48,42,46,48,42
2011-02-23,88,91,83,104,116,90,104,108,98,53,58,52,51,56,46,54,72,44,48,49,46,42,45,39,67,73,59,42,46,40,46,55,41,53,70,41,55,70,42,49,59,45
2011-02-24,103,123,89,130,135,118,114,117,109,76,87,60,62,64,58,85,90,74,59,69,49,54,62,45,82,84,74,47,51,44,41,49,36,79,85,71,75,80,69,65,68,61
2011-02-25,101,118,79,113,134,92,102,111,97,69,84,62,56,63,48,71,89,49,57,69,50,54,62,47,71,83,58,45,50,44,45,60,39,71,86,46,65,79,40,58,66,50
2011-02-26,76,81,73,83,91,79,96,99,94,60,62,57,51,52,48,50,54,48,52,52,51,47,52,45,53,56,53,46,47,44,52,60,47,49,51,46,46,50,38,50,51,48
2011-02-27,88,96,78,88,94,79,100,102,97,55,58,53,48,51,45,46,50,43,49,52,44,44,45,41,57,61,53,45,46,43,50,53,46,50,52,48,45,49,43,48,50,46
2011-02-28,79,84,76,91,103,79,101,106,95,61,66,53,50,53,45,54,64,43,51,54,45,38,41,35,66,70,57,35,42,31,36,44,28,61,68,52,53,58,49,45,47,42
2011-03-01,72,80,64,93,104,84,85,93,80,52,65,47,48,51,44,51,60,45,47,53,44,36,39,33,59,68,56,35,37,34,33,45,27,54,60,49,48,55,45,41,50,38
2011-03-02,69,81,61,90,100,85,84,89,77,57,63,52,48,52,44,58,61,54,50,54,44,44,57,33,54,57,51,47,56,33,49,61,37,55,58,51,60,69,55,59,66,51
2011-03-03,82,88,77,102,107,96,103,114,90,67,70,63,56,59,52,63,71,60,58,61,54,62,65,57,59,61,56,57,59,55,59,63,55,60,64,57,68,95,64,65,74,63
2011-03-04,73,79,68,95,108,78,97,112,83,69,71,65,59,60,57,65,68,60,60,61,57,63,65,59,62,63,60,58,59,56,60,63,57,63,65,59,67,70,60,67,69,61
2011-03-05,75,82,68,77,79,76,96,104,84,65,66,63,58,60,57,58,59,56,59,61,57,59,60,57,60,61,59,55,56,54,60,62,56,57,59,54,57,60,55,60,62,56
2011-03-06,80,84,73,76,83,66,103,105,97,65,67,64,60,61,59,55,57,53,60,61,59,57,60,55,60,61,59,56,56,55,62,64,59,53,55,52,53,56,49,55,57,54
2011-03-07,78,83,72,83,111,66,91,101,80,65,67,60,54,59,46,57,62,53,53,59,39,56,59,54,64,70,58,53,57,49,52,58,44,54,56,52,52,55,48,54,55,53
2011-03-08,76,79,72,95,110,85,71,78,67,58,61,55,47,54,41,55,58,51,50,55,38,56,60,52,52,56,47,50,54,45,50,56,42,52,54,48,53,55,52,55,57,53
2011-03-09,85,92,79,86,87,84,82,88,74,57,61,53,52,54,49,54,58,49,53,55,51,56,60,53,53,55,51,51,53,49,55,56,53,50,53,45,52,55,50,55,56,53
2011-03-10,84,92,73,91,94,88,74,78,70,51,52,50,46,49,45,46,49,44,50,51,48,51,52,49,51,51,50,45,49,42,47,53,42,44,47,42,52,57,49,52,53,51
2011-03-11,72,76,69,91,95,88,76,86,73,57,60,52,54,58,48,55,60,48,56,59,51,58,63,51,56,60,50,53,57,45,56,60,48,53,57,47,59,62,57,59,63,52
2011-03-12,77,79,74,97,102,94,97,102,88,57,60,54,55,57,51,59,64,56,56,59,54,59,63,55,59,62,58,55,57,52,58,60,53,56,58,54,57,59,55,60,63,57
2011-03-13,95,108,78,116,123,102,111,117,101,73,83,55,56,59,51,76,81,65,60,66,54,55,56,55,75,82,63,52,53,50,56,73,45,69,76,58,67,79,55,59,63,57
2011-03-14,96,107,87,108,122,102,110,116,105,60,76,52,53,57,50,66,77,61,63,70,56,56,57,55,66,75,62,55,65,52,55,60,50,67,75,60,61,70,49,58,61,55
2011-03-15,92,96,87,133,142,121,109,118,85,75,82,62,64,69,54,72,82,59,74,82,55,57,60,55,76,82,66,58,62,52,46,53,43,62,69,53,63,69,55,56,58,54
2011-03-16,85,94,79,106,119,98,60,82,47,51,60,47,42,51,37,49,56,45,48,53,44,52,56,51,53,66,49,50,54,46,45,53,40,49,53,46,53,56,50,57,62,55
2011-03-17,82,87,78,111,118,96,62,74,54,57,58,55,54,55,51,52,53,51,56,57,54,56,57,55,56,57,54,55,57,54,55,56,53,54,56,53,56,59,53,62,64,60
2011-03-18,86,93,84,85,94,79,83,89,76,56,57,52,55,56,51,51,52,48,56,57,52,56,57,54,55,56,51,54,55,51,57,58,52,53,54,48,53,53,52,60,62,54
2011-03-19,91,96,75,80,85,73,83,84,81,45,51,43,45,50,41,46,47,44,38,51,33,43,53,36,53,54,50,44,50,40,30,50,19,45,46,44,51,56,47,46,53,45
2011-03-20,75,91,70,67,73,60,77,85,68,49,55,47,47,51,43,54,72,44,36,38,34,38,40,35,54,56,51,36,41,32,19,28,11,57,73,45,73,89,56,54,59,48
2011-03-21,91,98,72,63,68,59,70,72,68,49,55,39,43,44,39,62,75,41,37,39,33,37,39,32,52,56,43,33,37,27,20,28,16,69,79,49,59,88,24,41,51,32
2011-03-22,62,69,54,75,92,66,65,69,57,40,41,38,38,39,37,37,40,36,31,34,30,31,36,26,42,43,40,28,35,24,22,29,17,37,47,34,34,50,23,38,49,29
2011-03-23,68,71,57,91,94,81,56,60,51,38,42,35,33,36,31,36,37,34,34,36,33,37,40,34,40,43,38,35,39,32,31,35,26,33,37,29,45,51,39,44,50,38
2011-03-24,64,77,57,81,92,75,63,64,61,49,55,37,47,52,33,48,55,37,49,54,38,51,56,41,49,54,39,47,52,37,47,53,36,45,52,35,52,58,43,52,57,44
2011-03-25,77,81,73,96,98,93,68,93,57,57,61,55,53,59,51,57,63,55,56,62,54,58,64,56,56,62,53,55,60,53,58,69,53,55,60,52,60,65,58,62,68,58
2011-03-26,83,90,75,98,101,95,113,124,96,68,73,62,68,74,60,68,73,62,70,76,63,70,77,62,71,76,63,69,76,61,72,78,63,68,73,61,71,75,65,74,79,68
2011-03-27,83,89,80,99,103,97,95,117,64,70,73,66,69,72,64,71,73,68,71,75,66,75,77,72,72,76,66,73,76,67,71,77,64,70,74,64,73,75,69,77,80,71
2011-03-28,81,85,78,97,101,93,68,92,59,60,65,56,58,64,55,61,68,56,60,65,57,65,71,59,60,66,57,60,66,56,61,69,56,58,63,55,64,69,58,65,70,62
2011-03-29,93,100,82,119,142,100,126,147,97,59,66,56,59,64,55,67,90,56,61,68,57,61,69,59,69,86,57,59,62,56,64,74,59,62,76,55,60,68,57,64,71,62
2011-03-30,100,103,97,128,144,108,139,146,131,65,70,61,64,67,62,80,92,59,66,70,62,64,68,62,81,88,69,62,63,61,67,72,65,71,78,61,63,67,58,69,73,63
2011-03-31,104,109,99,100,107,95,131,134,128,59,63,52,58,62,52,57,59,54,60,64,54,59,65,53,67,68,66,57,62,50,65,68,58,58,61,54,55,63,47,60,63,54
2011-04-01,83,97,72,98,103,93,123,128,117,49,51,46,52,53,50,56,60,52,51,53,50,48,52,45,66,68,64,46,51,43,54,60,50,51,55,48,46,47,44,51,54,46
2011-04-02,78,89,71,109,116,104,120,130,117,54,63,51,52,53,49,64,67,61,53,54,52,48,53,46,66,68,63,48,50,45,51,58,47,60,64,53,53,56,46,51,52,50
2011-04-03,98,108,88,129,136,118,135,143,122,77,87,65,55,59,49,69,74,63,65,69,55,55,62,50,74,80,65,49,50,47,46,48,44,50,54,45,49,54,38,50,51,48
2011-04-04,81,99,62,97,119,86,98,119,80,55,70,48,48,51,44,51,62,44,53,65,49,49,53,46,54,66,50,51,51,50,50,51,48,44,48,40,42,50,39,49,54,46
2011-04-05,62,65,60,75,85,65,82,88,78,48,50,46,46,48,40,49,51,44,48,51,42,48,53,47,50,52,45,49,51,44,53,58,49,46,49,43,51,53,46,53,55,47
2011-04-06,67,74,62,72,90,61,95,104,87,,,,44,50,39,42,43,40,45,49,41,45,54,40,47,50,44,45,52,42,51,64,47,44,49,42,46,50,44,50,51,46
2011-04-07,76,86,69,105,118,91,108,110,104,50,57,46,46,50,43,48,61,42,44,49,41,41,49,35,57,66,51,41,48,36,46,60,32,50,59,42,52,59,44,48,50,46
2011-04-08,97,105,88,129,135,119,112,121,108,74,81,58,57,60,50,76,80,64,53,55,49,51,60,44,79,82,67,44,62,38,38,51,34,61,63,59,56,61,53,51,53,48
2011-04-09,80,93,65,103,129,88,108,118,98,59,80,43,50,60,45,62,78,53,47,53,43,47,54,42,65,80,58,44,51,41,45,66,34,51,61,45,50,62,39,46,54,41
2011-04-10,72,83,65,96,101,90,110,122,101,48,61,42,49,50,46,58,63,55,52,57,50,49,50,46,58,61,55,48,57,45,54,68,49,51,55,46,44,52,38,48,50,44
2011-04-11,90,94,84,120,135,102,129,134,122,67,75,54,64,79,47,71,80,59,72,90,52,49,78,42,74,82,57,49,69,39,46,68,41,51,56,45,50,71,46,45,57,37
2011-04-12,78,89,70,101,122,86,106,120,97,61,67,52,62,71,56,61,72,58,65,76,59,59,66,46,64,73,57,60,66,51,62,72,50,59,64,51,55,61,44,63,67,54
2011-04-13,77,87,70,93,98,88,109,115,101,62,67,59,61,66,58,58,65,55,61,66,58,61,67,56,65,70,63,62,67,57,64,70,59,61,64,58,56,61,52,62,67,58
2011-04-14,89,91,86,114,123,100,110,117,105,69,75,59,59,63,51,71,77,63,55,58,47,51,55,45,79,89,69,50,56,45,51,59,43,58,64,48,47,52,39,57,61,50
2011-04-15,80,86,75,89,101,86,92,103,84,54,61,52,47,49,45,58,63,49,50,52,47,47,49,45,55,67,52,48,49,45,45,50,43,52,53,48,39,40,38,50,51,49
2011-04-16,71,75,65,77,87,62,80,85,76,48,52,41,43,47,39,48,49,46,52,52,50,47,48,45,58,64,52,46,49,44,48,50,42,50,51,49,37,39,34,49,51,46
2011-04-17,58,64,51,52,62,47,70,75,67,29,39,22,31,38,27,48,50,46,41,49,35,39,45,31,61,63,58,41,48,28,37,42,30,46,50,38,31,35,26,36,46,24
2011-04-18,55,61,49,74,95,54,74,88,67,31,44,21,35,42,28,40,48,34,37,41,35,35,48,24,47,57,35,35,53,26,39,60,27,36,44,30,38,62,28,34,73,23
2011-04-19,75,85,62,105,113,97,115,134,91,56,67,44,54,66,43,53,60,45,55,71,40,58,84,35,65,70,55,54,78,30,63,93,38,55,65,46,61,77,40,54,73,35
2011-04-20,80,85,76,96,110,85,125,134,115,72,74,68,70,72,65,64,66,60,70,72,67,71,78,67,72,74,68,69,74,63,74,83,68,70,72,66,69,71,63,72,74,66
2011-04-21,73,77,66,89,91,86,114,117,106,65,71,58,64,70,58,59,64,55,64,69,59,63,70,56,65,71,60,63,68,56,66,71,59,63,69,57,62,69,54,64,70,57
2011-04-22,65,72,61,96,99,89,96,104,89,52,57,46,51,57,43,49,54,44,54,59,50,48,55,43,54,60,47,50,55,47,50,58,42,49,56,44,43,53,37,52,57,50
2011-04-23,71,76,63,89,95,78,77,87,67,42,46,41,38,42,35,43,45,41,46,49,44,44,48,40,46,49,43,46,50,43,44,49,39,43,46,41,44,48,39,52,55,48
2011-04-24,69,84,63,77,77,77,101,126,74,46,49,42,47,55,39,49,62,42,50,53,46,53,68,43,58,72,50,51,65,44,57,73,48,48,56,43,48,57,45,52,61,47
2011-04-25,97,109,87,,,,135,140,127,68,75,50,66,75,54,77,82,65,66,75,52,47,55,42,82,90,69,50,73,43,54,71,47,58,61,52,61,66,53,59,67,50
2011-04-26,96,102,92,,,,120,140,107,58,68,53,50,55,46,68,75,65,67,71,61,52,53,50,55,67,51,54,63,51,52,56,49,52,53,51,48,52,44,55,58,52
2011-04-27,90,92,87,91,104,53,99,107,93,51,53,50,45,46,43,59,65,55,67,71,62,49,50,48,50,51,48,54,75,48,47,49,44,50,51,49,46,74,41,56,83,51
2011-04-28,83,91,64,102,108,91,89,94,82,51,54,51,47,49,45,54,57,50,59,64,52,52,55,49,52,56,48,62,65,59,54,56,49,58,63,51,56,59,53,59,61,57
2011-04-29,66,71,62,89,92,85,91,96,83,58,60,54,56,58,50,52,62,41,59,61,55,56,57,55,60,62,57,57,59,56,59,60,56,57,58,55,54,55,53,57,59,56
2011-04-30,72,75,69,87,96,71,91,96,85,58,61,52,61,65,57,62,64,56,62,64,59,57,58,53,62,64,57,59,61,58,64,68,60,56,57,52,52,55,42,54,56,52
2011-05-01,65,72,59,64,72,54,81,89,70,42,52,34,41,57,29,48,56,40,47,58,36,41,52,32,46,56,37,47,57,37,53,66,37,42,52,34,27,40,21,42,52,34
2011-05-02,58,60,54,49,52,46,64,70,60,25,33,21,28,29,27,35,39,32,31,36,27,27,32,23,32,37,28,30,36,25,29,36,23,33,34,33,20,21,18,31,34,26
2011-05-03,51,60,47,51,57,47,63,68,60,20,24,17,24,29,22,33,36,32,27,29,24,21,22,20,27,29,26,24,27,22,20,23,17,33,37,32,20,29,17,24,26,22
2011-05-04,69,82,56,74,104,57,78,102,67,34,52,24,30,40,22,48,64,38,34,47,27,30,50,21,39,58,29,38,58,25,23,33,17,46,57,38,43,60,26,44,62,26
2011-05-05,66,77,54,91,100,77,86,94,68,52,54,46,42,45,40,61,67,48,47,50,42,44,52,30,53,56,45,54,62,38,35,38,31,51,56,44,70,75,61,59,64,50
2011-05-06,58,63,55,78,85,68,71,73,66,48,52,36,49,52,38,42,46,36,48,52,39,38,42,30,49,52,40,37,42,32,40,45,34,40,44,31,42,65,23,39,48,28
2011-05-07,63,69,58,60,67,56,60,65,58,22,34,18,30,36,28,29,35,25,27,38,24,23,35,19,29,39,26,25,33,22,24,36,18,31,31,30,18,22,15,22,27,21
2011-05-08,63,68,53,52,57,47,57,58,54,17,18,15,28,30,25,19,25,14,22,24,19,17,20,15,26,28,25,18,22,15,18,26,15,25,30,22,17,21,14,22,23,21
2011-05-09,52,56,50,52,55,47,53,55,50,17,20,15,26,29,25,16,21,14,21,24,19,16,19,15,25,29,24,17,19,16,21,34,15,24,26,22,17,22,14,20,22,19
2011-05-10,57,60,50,48,55,40,60,68,54,18,21,14,25,29,18,25,27,21,24,25,23,18,19,17,29,31,25,21,22,19,22,28,18,29,30,27,15,18,14,23,24,20
2011-05-11,53,57,49,47,67,39,67,69,64,17,20,14,21,28,17,30,35,26,32,38,26,19,23,18,27,31,24,23,25,21,24,34,18,30,34,27,20,26,17,20,23,18
2011-05-12,58,59,57,60,64,57,66,67,64,25,32,19,21,26,19,36,37,34,37,38,35,26,28,23,32,32,30,26,27,25,25,35,21,34,35,33,20,22,18,25,27,23
2011-05-13,59,62,56,75,95,62,70,79,64,33,44,29,21,22,21,37,47,33,35,43,32,27,29,25,37,51,31,27,30,22,26,37,19,35,38,33,25,37,21,29,37,24
2011-05-14,54,56,52,82,90,69,82,88,79,37,38,34,39,44,36,38,43,34,35,37,29,25,32,20,44,46,42,32,38,27,45,55,37,34,37,32,33,38,27,34,38,27
2011-05-15,57,64,53,69,75,61,90,92,85,47,58,36,47,58,38,45,55,36,49,61,36,40,55,26,49,58,43,46,57,38,53,62,37,43,53,34,38,43,27,39,46,31
2011-05-16,68,71,62,77,99,63,84,87,82,62,67,53,62,67,55,56,58,51,67,71,61,55,59,44,62,66,55,60,63,53,61,63,53,54,57,47,40,45,31,50,53,45
2011-05-17,63,66,60,101,104,93,76,84,69,41,52,37,44,54,41,42,51,37,45,60,38,28,42,23,46,54,42,36,52,29,38,53,23,39,46,36,34,36,32,33,43,29
2011-05-18,72,86,59,93,99,88,86,99,71,41,60,34,43,52,40,41,52,37,42,54,38,32,42,20,51,54,46,41,53,28,60,66,52,43,53,36,45,68,31,43,63,29
2011-05-19,88,90,84,97,101,92,99,103,94,40,51,35,41,47,37,41,43,37,39,46,36,32,36,29,50,54,47,39,50,30,52,67,35,41,46,38,35,45,29,39,49,33
2011-05-20,73,83,65,88,91,86,86,93,76,33,35,31,37,38,35,36,37,34,34,36,31,24,29,21,44,46,41,28,34,23,36,45,25,38,39,36,32,36,28,35,37,33
2011-05-21,71,102,62,81,90,69,71,76,67,30,31,28,36,37,35,37,39,34,30,33,29,19,21,18,40,43,38,24,27,20,25,34,19,38,42,35,23,26,19,36,38,31
2011-05-22,84,91,77,66,69,64,72,76,71,30,32,26,34,36,31,36,37,34,33,37,30,22,24,20,38,40,36,20,29,10,20,35,12,36,37,34,20,24,16,32,33,30
2011-05-23,96,109,82,85,111,67,83,87,76,38,51,28,47,63,32,43,49,36,50,61,38,28,32,24,47,55,38,36,40,30,25,40,14,40,44,38,27,41,16,36,43,32
2011-05-24,92,101,81,106,114,91,69,80,61,46,52,41,52,63,40,44,51,34,53,60,44,33,37,29,44,53,41,38,42,34,30,31,27,40,46,34,48,51,42,46,50,42
2011-05-25,79,87,75,90,101,87,62,68,60,42,48,39,40,44,38,36,44,34,40,44,38,29,36,26,41,43,39,36,45,32,35,47,29,37,41,35,41,48,37,44,51,40
2011-05-26,96,116,87,114,134,103,78,102,68,54,60,49,46,49,43,52,71,41,47,54,44,43,46,37,48,59,43,50,59,46,47,66,38,47,66,41,66,117,49,63,114,52
2011-05-27,121,127,118,138,153,132,111,120,104,62,66,60,48,55,46,77,84,73,55,77,50,50,54,47,62,70,58,51,58,47,47,67,35,58,64,52,74,134,55,66,118,55
2011-05-28,146,167,128,168,178,156,142,172,122,80,85,68,66,110,55,91,95,85,71,88,61,59,63,54,86,102,70,61,81,53,72,118,50,70,88,64,75,127,63,71,107,62
2011-05-29,158,182,104,162,192,93,167,189,114,80,91,64,82,91,60,90,103,70,97,116,63,65,68,60,102,113,68,65,68,60,65,69,58,70,73,63,67,79,61,73,78,65
2011-05-30,83,98,74,73,94,59,95,110,89,54,63,47,53,60,48,59,69,52,54,62,49,53,59,48,56,65,50,53,59,46,66,75,55,56,63,50,56,62,49,58,64,51
2011-05-31,100,109,90,115,127,96,112,120,104,48,66,41,48,61,42,55,67,45,47,64,41,49,86,39,58,64,50,52,89,39,62,116,41,52,65,45,62,145,41,64,144,46
2011-06-01,100,114,95,109,117,102,101,111,94,46,51,43,46,57,41,58,63,53,51,70,40,42,47,39,53,61,45,54,113,42,54,99,39,52,54,50,60,137,48,61,128,55
2011-06-02,113,117,106,100,115,79,106,114,91,53,55,49,47,50,41,68,74,62,60,68,50,54,56,48,52,54,46,55,58,52,45,51,38,56,60,53,55,57,53,56,59,52
2011-06-03,102,106,95,77,79,74,88,91,86,48,53,41,43,47,39,57,61,53,49,50,48,52,55,44,49,53,42,51,52,47,42,47,38,50,53,47,46,52,38,50,52,47
2011-06-04,90,96,83,68,75,56,78,86,68,36,41,27,33,39,25,46,53,38,42,48,33,39,43,31,37,42,29,40,47,29,38,44,29,46,50,38,31,37,22,42,47,32
2011-06-05,71,82,58,43,56,34,61,67,56,17,26,11,19,24,15,30,37,26,24,32,22,21,30,15,24,28,23,22,28,19,22,28,14,29,36,26,16,21,12,22,31,15
2011-06-06,56,59,49,33,33,31,54,56,53,11,15,9,16,20,15,29,30,28,22,23,21,15,16,15,22,23,21,18,19,18,16,23,13,25,27,24,13,16,11,15,17,15
2011-06-07,50,53,48,41,55,31,50,54,41,10,12,9,15,19,14,28,29,26,25,27,23,14,15,13,22,22,20,18,19,16,12,15,11,24,24,23,11,15,9,15,15,15
2011-06-08,51,54,48,49,55,43,41,46,40,10,11,9,15,17,14,26,28,24,25,27,22,14,16,12,19,20,19,20,20,19,13,19,10,23,23,22,10,14,7,15,16,14
2011-06-09,51,59,47,45,47,42,48,50,45,12,14,11,21,25,18,28,30,26,21,22,20,17,18,16,23,27,20,21,23,20,16,26,12,25,27,23,13,20,9,17,18,16
2011-06-10,66,71,60,51,59,45,47,52,44,12,14,10,25,26,24,25,27,23,19,20,18,15,16,14,26,27,25,21,22,20,13,23,8,26,27,25,13,22,9,21,23,18
2011-06-11,67,71,61,57,63,50,55,59,52,15,19,14,27,28,26,31,33,27,24,29,20,15,17,14,29,31,27,23,29,20,17,31,13,30,31,27,16,19,13,26,27,24
2011-06-12,64,73,61,54,57,52,62,66,59,18,19,17,27,28,25,34,35,33,30,32,29,20,21,18,31,33,28,31,32,29,17,24,13,33,34,31,16,23,12,24,25,23
2011-06-13,73,75,70,55,71,51,60,65,54,18,21,15,30,32,26,32,34,30,28,31,23,21,21,20,31,34,28,27,29,23,17,25,12,33,33,33,17,21,12,26,28,24
2011-06-14,61,69,54,52,56,49,54,55,52,13,15,11,20,26,17,30,31,29,22,23,22,19,21,17,25,27,23,18,22,14,15,21,11,26,29,19,14,17,10,20,23,17